RH
71 71 69 62 62 63 64 65 58 56 56 54 53 56 58 64 64 61 70 69 72 73
66 64 62 58 60 62 57 48 55 53 53 53 52 53 56 61 62 62 64 67 70 70
59 58 59 60 57 56 55 53 53 54 54 53 52 52 54 60 60 58 64 57 62 64
55 54 54 55 55 55 55 54 54 53 53 52 52 52 55 56 54 57 60 61 61 63
56 55 55 55 54 54 54 54 54 51 50 50 51 51 53 54 55 56 57 58 60 62
59 59 58 58 55 53 52 52 49 48 50 49 51 50 50 50 48 50 54 55 58 61
58 58 59 58 56 55 52 51 50 47 44 45 42 43 45 44 49 52 48 55 58 58
57 56 56 55 52 50 49 44 41 38 38 38 38 34 45 50 58 62 60 58 50 49
54 52 49 42 37 36 37 36 34 35 37 42 32 44 57 60 64 62 61 58 50 50
44 38 36 32 32 34 36 36 38 38 39 40 40 52 54 55 51 60 63 58 55 47
35 32 33 35 38 41 41 42 44 44 44 46 40 54 54 56 56 59 56 54 48 45
35 36 38 41 42 44 46 48 49 43 43 44 42 56 56 52 48 49 49 45 43 44
38 40 42 44 47 47 45 42 40 38 39 46 41 52 57 53 51 50 49 50 45 53
42 44 44 44 44 43 45 45 45 40 38 40 41 42 51 54 53 51 53 54 56 55
Wind_Speed
6 4 4 6 5 4 4 3 3 4 4 4 4 3 4 3 3 3 3 5 4 3
6 7 6 6 5 4 5 3 4 4 4 3 4 4 3 3 4 4 3 5 4 3
6 7 7 6 6 6 5 4 5 4 3 3 4 5 5 4 4 5 4 4 6 4
7 6 7 6 6 5 4 4 5 4 3 4 5 6 5 5 5 6 6 6 5 7
7 7 7 7 5 5 4 3 3 3 4 4 5 5 4 5 5 5 6 6 6 7
7 7 6 6 5 5 5 4 4 5 4 4 4 4 4 4 5 6 6 6 6 7
7 6 6 5 5 5 4 3 4 3 4 4 4 5 6 3 4 6 6 7 7 7
7 6 5 4 4 3 3 3 2 3 5 5 4 4 4 5 5 6 7 7 8 8
6 6 5 4 3 3 3 3 3 5 5 6 5 9 11 8 5 6 7 9 9 8
5 5 3 1 1 2 3 3 5 6 7 7 7 12 14 15 7 5 6 9 10 9
4 3 2 1 2 3 3 4 6 7 7 7 8 13 15 17 8 7 8 9 10 10
4 3 1 3 4 5 5 5 6 7 8 9 9 13 16 16 8 6 8 9 9 8
3 3 4 6 6 5 4 6 6 8 8 11 11 13 16 13 4 6 6 8 9 13
3 4 6 6 5 5 6 6 7 10 9 9 10 9 16 17 5 5 6 7 7 6
Wind_Direction
98 94 96 96 102 98 101 95 70 61 59 47 31 20 16 338 336 6 354 329 314 304
110 100 98 94 98 101 94 104 83 61 49 29 34 21 0 353 342 357 342 319 314 304
116 114 109 101 96 93 91 81 76 62 38 21 23 23 16 358 339 351 344 334 333 317
113 107 103 102 94 103 91 76 67 53 31 31 23 12 5 345 341 353 331 326 316 311
101 98 97 94 94 92 108 96 95 51 36 18 12 353 353 338 337 346 329 311 311 299
104 102 100 96 82 68 53 45 43 38 15 360 330 329 323 322 354 326 305 296 294 283
98 102 102 97 90 76 49 41 29 6 326 312 313 324 306 332 321 296 291 283 277 276
100 102 101 87 82 79 54 4 345 322 307 309 309 288 273 282 271 277 280 281 284 284
120 116 101 84 55 24 350 326 322 309 299 294 274 279 289 284 254 275 290 293 289 283
111 109 113 115 3 317 293 288 287 281 277 272 269 268 284 295 289 272 267 275 279 277
138 144 170 230 279 282 278 275 270 266 261 258 267 282 287 284 273 259 261 266 268 268
165 184 282 302 282 264 256 260 256 265 275 273 269 266 275 277 269 253 261 270 270 268
176 209 242 248 255 248 255 271 280 276 267 262 271 263 269 274 233 252 268 277 276 279
224 244 252 261 265 265 267 273 275 276 271 261 259 260 268 276 255 243 261 265 274 275